Location: Goettingen
(51.5300°N, 9.9433°E)
Time: 20:05:26
(UTC+01:00)

ISS - Pass Details

Date: 21 January 2022
Orbit: 413 x 422 km, 51.6° (Epoch: 28 January)

Event Time Altitude Azimuth Distance (km) Brightness Sun altitude
Rises 19:01:02 0° 237° (WSW) 2,341 1.2 -19.9°
Reaches altitude 10° 19:03:09 10° 231° (SW) 1,482 -0.2 -20.2°
Enters shadow 19:05:54 43° 183° (S) 594 -3.0 -20.6°
